San Jose, Costa Rica

10:29 AM CST on June 26, 2017 (GMT -0600)
Juan Santamaria International

Weather History for MROC - January, 2009

Change the Weather History Date:

Monday, January 26, 2009

  Actual Average Record
Temperature  
Mean Temperature 74 °F -  
Max Temperature 81 °F 81 °F 87 °F (1998)
Min Temperature 67 °F 64 °F 60 °F (2004)
Cooling Degree Days 9    
Growing Degree Days 24 (Base 50)    
Moisture  
Dew Point 59 °F    
Average Humidity 62    
Maximum Humidity 89    
Minimum Humidity 37    
Precipitation  
Precipitation 0.00 in 0.01 in - ()
Sea Level Pressure  
Sea Level Pressure 29.96 in    
Wind  
Wind Speed 13 mph ()    
Max Wind Speed 25 mph    
Max Gust Speed 32 mph    
Visibility 7.7 miles    
Events      
Averages and records for this station are not official NWS values.
T = Trace of Precipitation, MM = Missing Value Source: Averaged Metar Reports

Daily Weather History Graph

Daily Weather History Graph

Search for Another Location

Airport or City:

Trip Planner

Search our weather history database for the weather conditions in past years. The results will help you decide how hot, cold, wet, or windy it might be!

Date:

Astronomy

Jan. 26, 2009 Rise Set
Actual Time 5:59 AM CST 5:39 PM CST
Civil Twilight 5:37 AM CST 6:01 PM CST
Nautical Twilight 5:11 AM CST 6:27 PM CST
Astronomical Twilight 4:46 AM CST 6:52 PM CST
Moon 6:10 AM CST 6:06 PM CST
Length of Visible Light 12h 24m
Length of Day
11h 40m
New Moon, 0% of the Moon is Illuminated
Jan 26
New Moon
Feb 2
First Quarter
Feb 9
Full
Feb 16
Last Quarter
Feb 24
New

Hourly Weather History & Observations

Time (CST) Temp. Heat Index Dew Point Humidity Pressure Visibility Wind Dir Wind Speed Gust Speed Precip Events Conditions
12:00 AM 68 °F - 59 °F 65% 29.87 in 12 mi ESE 13.8 mph - -   Scattered Clouds
12:00 AM 68.0 °F - 59.0 °F 73% 30.02 in 6.2 mi ESE 13.8 mph - N/A   Scattered Clouds
1:00 AM 68.0 °F - 59.0 °F 73% 30.00 in 6.2 mi East 13.8 mph - N/A   Scattered Clouds
2:00 AM 68.0 °F - 59.0 °F 73% 29.98 in 6.2 mi East 15.0 mph - N/A   Scattered Clouds
3:00 AM 68 °F - 61 °F 71% 29.80 in 12 mi East 13.8 mph - -   Scattered Clouds
3:00 AM 68.0 °F - 60.8 °F 78% 29.96 in 6.2 mi East 13.8 mph - N/A   Partly Cloudy
4:00 AM 68.0 °F - 59.0 °F 73% 29.96 in 6.2 mi ESE 13.8 mph - N/A   Partly Cloudy
5:00 AM 68.0 °F - 60.8 °F 78% 29.98 in 6.2 mi East 10.4 mph - N/A   Partly Cloudy
6:00 AM 68 °F - 59 °F 65% 29.84 in 12 mi East 13.8 mph - -   Scattered Clouds
6:00 AM 68.0 °F - 59.0 °F 73% 29.98 in 6.2 mi East 13.8 mph - N/A   Scattered Clouds
7:00 AM 69.8 °F - 60.8 °F 73% 30.01 in - North - - N/A   Partly Cloudy
8:00 AM 73.4 °F - 57.2 °F 57% 30.03 in 6.2 mi East 18.4 mph - N/A   Partly Cloudy
9:00 AM 75 °F - 59 °F 48% 29.89 in 12 mi East 16.1 mph - -   Scattered Clouds
9:00 AM 75.2 °F - 59.0 °F 57% 30.04 in 6.2 mi East 16.1 mph - N/A   Partly Cloudy
10:00 AM 77.0 °F - 59.0 °F 54% 30.04 in 6.2 mi East 16.1 mph - N/A   Scattered Clouds
11:00 AM 75.2 °F - 57.2 °F 53% 30.02 in 6.2 mi East 19.6 mph - N/A   Scattered Clouds
12:00 PM 79 °F - 59 °F 40% 29.81 in 12 mi East 13.8 mph - -   Partly Cloudy
12:00 PM 78.8 °F - 59.0 °F 51% 29.99 in 6.2 mi East 13.8 mph 25.3 mph N/A   Scattered Clouds
1:00 PM 80.6 °F 80.8 °F 57.2 °F 45% 29.97 in 6.2 mi ENE 19.6 mph 31.1 mph N/A   Scattered Clouds
2:00 PM 78.8 °F - 55.4 °F 44% 29.95 in 6.2 mi ENE 18.4 mph - N/A   Partly Cloudy
3:00 PM 79 °F - 57 °F 37%  in 12 mi ENE 20.7 mph - -   Scattered Clouds
3:00 PM 78.8 °F - 57.2 °F 47% 29.94 in 6.2 mi ENE 20.7 mph 32.2 mph N/A   Partly Cloudy
4:00 PM 77.0 °F - 73.4 °F 89% 29.94 in 6.2 mi ENE 25.3 mph - N/A   Partly Cloudy
5:00 PM 75.2 °F - 69.8 °F 83% 29.96 in 6.2 mi ENE 20.7 mph - N/A   Partly Cloudy
6:00 PM 72 °F - 52 °F 38% 29.86 in 12 mi ENE 13.8 mph - -  
6:00 PM 71.6 °F - 51.8 °F 50% 29.98 in 6.2 mi ENE 13.8 mph - N/A   Unknown
7:00 PM 69.8 °F - 53.6 °F 56% 29.99 in 6.2 mi East 15.0 mph - N/A   Unknown
8:00 PM 68.0 °F - 55.4 °F 64% 30.01 in 6.2 mi East 12.7 mph - N/A   Unknown
9:00 PM 70 °F - 61 °F 65% 29.83 in 12 mi ESE 9.2 mph - -  
9:00 PM 68.0 °F - 57.2 °F 68% 30.01 in 6.2 mi East 12.7 mph - N/A   Unknown
10:00 PM 68.0 °F - 57.2 °F 68% 30.03 in 6.2 mi East 11.5 mph - N/A   Unknown
11:00 PM 68.0 °F - 57.2 °F 68% 30.02 in 6.2 mi East 13.8 mph - N/A   Unknown